Flag for U.S.A. Weather past 2 weeks in Lynchburg, Virginia, U.S.A.

Now
68 °F

Fog.


Feels Like: 68 °F
Forecast: 65 / 80 °F
Wind: 5 mph from North

Location: Lynchburg Regional Airport

Current Time: Jul 5, 2015 at 3:04:52 AM

Latest Report: Jul 5, 2015 at 2:04 AM


Visibility: 2 mi

Pressure: 30.07 "Hg

Humidity: 100%

Dew point: 68 °F

Location of LynchburgLocation

Historic Weather in Lynchburg — Graph

°F

Lynchburg temperature yesterday

Maximum temperature yesterday: 83 °F (at 2:54 PM)
Minimum temperature yesterday: 67 °F (at 4:54 AM)
Average temperature yesterday: 73 °F

Past Weeks' High & Low Weather Summary

 TemperatureHumidityPressure
High90 °F (Jun 21, 3:54 PM)100% (Jun 20, 4:54 AM)30.11 "Hg (Jun 20, 4:54 AM)
Low54 °F (Jun 29, 5:54 AM)37% (Jun 24, 5:54 PM)29.71 "Hg (Jun 27, 6:54 PM)
Average74 °F77%29.94 "Hg
* Reported Jun 20 1:54 AM — Jul 5 1:54 AM, Lynchburg, Weather by CustomWeather, © 2015

Note: Actual official high and low records may vary slightly from our data, if they occured in-between our weather recording intervals... More about our weather records

Advertising

Lynchburg weather history for previous 24 hours

 ConditionsComfort  
Time TempWeatherWind HumidityBarometerVisibility
1:54 AM
Sun, Jul 5
68 °FFog.No wind96%30.04 "Hg4 mi
1:03 AM68 °FClear.No wind100%30.07 "Hg9 mi
12:54 AM69 °FFog.3 mph96%30.04 "Hg2 mi
11:54 PM
Sat, Jul 4
70 °FPassing clouds.No wind97%30.04 "Hg10 mi
10:54 PM71 °FPassing clouds.3 mph96%30.03 "Hg10 mi
9:54 PM72 °FClear.3 mph97%30.01 "Hg10 mi
8:54 PM73 °FSunny.5 mph94%29.98 "Hg10 mi
7:54 PM76 °FSunny.5 mph88%29.96 "Hg10 mi
6:54 PM82 °FSunny.6 mph58%29.95 "Hg10 mi
5:54 PM82 °FPassing clouds.5 mph60%29.93 "Hg10 mi
4:54 PM83 °FSunny.6 mph59%29.92 "Hg10 mi
3:54 PM81 °FBroken clouds.7 mph65%29.92 "Hg10 mi
2:54 PM83 °FScattered clouds.9 mph63%29.93 "Hg10 mi
1:54 PM81 °FPartly sunny.13 mph67%29.94 "Hg10 mi
12:54 PM79 °FBroken clouds.7 mph72%29.94 "Hg10 mi
11:54 AM76 °FPartly sunny.8 mph80%29.94 "Hg10 mi
10:54 AM75 °FPartly sunny.10 mph82%29.94 "Hg10 mi
9:54 AM73 °FPartly sunny.9 mph84%29.93 "Hg8 mi
8:54 AM70 °FFog.6 mph93%29.93 "Hg4 mi
8:04 AM68 °FFog.6 mph100%29.95 "Hg1 mi
7:54 AM68 °FFog.5 mph100%29.93 "Hg1 mi
6:54 AM67 °FFog.No wind100%29.92 "Hg0 mi
5:54 AM67 °FFog.No wind100%29.92 "Hg1 mi
4:54 AM67 °FFog.No wind100%29.90 "Hg2 mi
3:54 AM68 °FFog.No wind96%29.89 "Hg5 mi
Weather by CustomWeather, © 2015

See weather overviewHow to use our weather pages